BAW490 EGLL-LXGB

Flight info

Callsign BAW490
Flight time N/A
Altitude 37000
Route GOGSI N621 SAM M195 MARUK N621 LELNA DCT NOVAN DCT DELOG DCT CRISA DCT VULPE DCT MAR N864 PIMOS
Aircraft A320/M-SDE3FGHIRWY/LB1

Departure

Time N/A
Airport London Heathrow Airport (EGLL)

Arrival

Time 2026-05-04 13:40
Airport Gibraltar Airport (LXGB)
Time Latitude Longitude Altitude Speed Heading
2026-05-04 13:17 37.39331 -4.87267 35325 ft 399 kts 197°
2026-05-04 13:17 37.36581 -4.87822 34591 ft 402 kts 198°
2026-05-04 13:17 37.33808 -4.88375 33980 ft 403 kts 198°
2026-05-04 13:17 37.31055 -4.88912 33519 ft 398 kts 197°
2026-05-04 13:18 37.28329 -4.89440 33050 ft 394 kts 198°
2026-05-04 13:18 37.25667 -4.89960 32592 ft 390 kts 198°
2026-05-04 13:18 37.22962 -4.90491 32121 ft 386 kts 198°
2026-05-04 13:18 37.20322 -4.91014 31657 ft 382 kts 198°
2026-05-04 13:19 37.17705 -4.91535 31206 ft 379 kts 198°
2026-05-04 13:19 37.15985 -4.91879 30897 ft 377 kts 198°
2026-05-04 13:19 37.12577 -4.92562 30271 ft 373 kts 198°
2026-05-04 13:19 37.09995 -4.93081 29809 ft 369 kts 198°
2026-05-04 13:20 37.08324 -4.93415 29503 ft 366 kts 198°
2026-05-04 13:20 37.04983 -4.93924 28898 ft 369 kts 191°
2026-05-04 13:20 37.02403 -4.93845 28411 ft 371 kts 187°
2026-05-04 13:20 36.99833 -4.93709 27940 ft 369 kts 187°
2026-05-04 13:21 36.97279 -4.93565 27480 ft 366 kts 187°
2026-05-04 13:21 36.95562 -4.93469 27173 ft 365 kts 187°
2026-05-04 13:21 36.93032 -4.93331 26733 ft 363 kts 187°
2026-05-04 13:21 36.90513 -4.93195 26289 ft 361 kts 186°
2026-05-04 13:22 36.88049 -4.93065 25835 ft 358 kts 187°
2026-05-04 13:22 36.85573 -4.92935 25435 ft 355 kts 187°
2026-05-04 13:22 36.83116 -4.92808 25013 ft 352 kts 186°
2026-05-04 13:22 36.80673 -4.92686 24584 ft 351 kts 186°
2026-05-04 13:23 36.78241 -4.92568 24166 ft 349 kts 186°
2026-05-04 13:23 36.75814 -4.92451 23725 ft 349 kts 185°
2026-05-04 13:23 36.73392 -4.92331 23231 ft 348 kts 185°
2026-05-04 13:23 36.70981 -4.92205 22766 ft 344 kts 185°
2026-05-04 13:24 36.68600 -4.92079 22325 ft 342 kts 185°
2026-05-04 13:24 36.66228 -4.91954 21861 ft 341 kts 185°
2026-05-04 13:24 36.63860 -4.91831 21377 ft 340 kts 185°
2026-05-04 13:25 36.59160 -4.91601 20472 ft 337 kts 185°
2026-05-04 13:25 36.56812 -4.91487 20003 ft 338 kts 185°
2026-05-04 13:25 36.54457 -4.91370 19531 ft 340 kts 184°
2026-05-04 13:25 36.52091 -4.91248 19053 ft 340 kts 184°
2026-05-04 13:26 36.49728 -4.91123 18590 ft 339 kts 184°
2026-05-04 13:26 36.47375 -4.91001 18097 ft 338 kts 184°
2026-05-04 13:26 36.45029 -4.90881 17601 ft 336 kts 184°
2026-05-04 13:26 36.42703 -4.90759 17131 ft 334 kts 184°
2026-05-04 13:27 36.40388 -4.90637 16662 ft 332 kts 183°
2026-05-04 13:27 36.38093 -4.90515 16192 ft 330 kts 183°
2026-05-04 13:27 36.35810 -4.90395 15734 ft 328 kts 183°
2026-05-04 13:27 36.33532 -4.90280 15281 ft 327 kts 183°
2026-05-04 13:28 36.31293 -4.90168 14831 ft 326 kts 183°
2026-05-04 13:28 36.29032 -4.90056 14373 ft 325 kts 183°
2026-05-04 13:28 36.26771 -4.89941 13916 ft 325 kts 182°
2026-05-04 13:28 36.24516 -4.89825 13435 ft 324 kts 182°
2026-05-04 13:29 36.22272 -4.89709 12975 ft 322 kts 182°
2026-05-04 13:29 36.20030 -4.89594 12470 ft 322 kts 182°
2026-05-04 13:29 36.17826 -4.89761 12005 ft 313 kts 198°
2026-05-04 13:29 36.15847 -4.90756 11571 ft 304 kts 216°
2026-05-04 13:30 36.14280 -4.92439 11148 ft 296 kts 233°
2026-05-04 13:30 36.13245 -4.94609 10769 ft 292 kts 248°
2026-05-04 13:30 36.12472 -4.96917 10367 ft 290 kts 248°
2026-05-04 13:30 36.11698 -4.99202 10097 ft 284 kts 248°
2026-05-04 13:31 36.10946 -5.01402 9976 ft 273 kts 248°
2026-05-04 13:31 36.10217 -5.03532 9753 ft 266 kts 248°
2026-05-04 13:31 36.09496 -5.05632 9354 ft 266 kts 248°
2026-05-04 13:31 36.08772 -5.07741 8971 ft 265 kts 248°
2026-05-04 13:32 36.08054 -5.09838 8589 ft 265 kts 248°
2026-05-04 13:32 36.07336 -5.11932 8213 ft 264 kts 248°
2026-05-04 13:32 36.06624 -5.14014 7870 ft 263 kts 248°
2026-05-04 13:32 36.05911 -5.16094 7538 ft 261 kts 248°
2026-05-04 13:33 36.05199 -5.18172 7106 ft 264 kts 248°
2026-05-04 13:33 36.04481 -5.20264 6711 ft 265 kts 248°
2026-05-04 13:33 36.03759 -5.22364 6320 ft 265 kts 248°
2026-05-04 13:33 36.03038 -5.24460 5948 ft 265 kts 248°
2026-05-04 13:34 36.02321 -5.26553 5564 ft 262 kts 248°
2026-05-04 13:34 36.01628 -5.28572 5198 ft 249 kts 248°
2026-05-04 13:34 36.00968 -5.30494 4852 ft 237 kts 248°
2026-05-04 13:34 36.00336 -5.32330 4509 ft 227 kts 249°
2026-05-04 13:35 35.99993 -5.34167 4176 ft 216 kts 268°
2026-05-04 13:35 36.00003 -5.37710 3555 ft 197 kts 271°
2026-05-04 13:35 36.00381 -5.39288 3239 ft 197 kts 307°
2026-05-04 13:36 36.01580 -5.40093 2934 ft 203 kts 348°
2026-05-04 13:36 36.02972 -5.40218 2644 ft 198 kts 354°
2026-05-04 13:36 36.04317 -5.40218 2373 ft 187 kts 353°
2026-05-04 13:36 36.05580 -5.40199 2082 ft 176 kts 355°
2026-05-04 13:37 36.06774 -5.40187 1814 ft 168 kts 356°
2026-05-04 13:37 36.07917 -5.40183 1580 ft 163 kts 354°
2026-05-04 13:37 36.09045 -5.40189 1389 ft 159 kts 353°
2026-05-04 13:37 36.10098 -5.40193 1277 ft 145 kts 351°
2026-05-04 13:38 36.11075 -5.40198 1180 ft 137 kts 352°
2026-05-04 13:38 36.11996 -5.40209 1094 ft 130 kts 350°
2026-05-04 13:38 36.12904 -5.40224 1044 ft 131 kts 354°
2026-05-04 13:38 36.13822 -5.40225 969 ft 136 kts
2026-05-04 13:39 36.14652 -5.39626 847 ft 152 kts 52°
2026-05-04 13:39 36.14942 -5.38348 647 ft 158 kts 82°
2026-05-04 13:39 36.15062 -5.36993 315 ft 156 kts 86°
2026-05-04 13:39 36.15099 -5.35665 43 ft 153 kts 87°
2026-05-04 13:40 36.15137 -5.34560 18 ft 91 kts 88°
2026-05-04 13:40 36.15150 -5.34244 16 ft 4 kts 73°
2026-05-04 13:40 36.15190 -5.34225 16 ft 9 kts 355°
2026-05-04 13:40 36.15240 -5.34241 17 ft 8 kts 309°
2026-05-04 13:41 36.15241 -5.34329 15 ft 13 kts 266°
2026-05-04 13:41 36.15237 -5.34447 16 ft 14 kts 267°
2026-05-04 13:41 36.15233 -5.34531 18 ft 5 kts 267°
2026-05-04 13:42 36.15287 -5.34577 17 ft 5 kts
2026-05-04 13:42 36.15308 -5.34578 17 ft 0 kts 358°